User: anonymous
Location: Bismarck
(46.7731°N, 100.8200°W)
Time: 16:29:02
(UTC-05:00)
Language:

Cosmos 1125 Rocket - Orbit

View from above orbital plane
View from above orbital plane
View from above satellite
View from above satellite

Ground track
Ground track

The orbit data is extracted from the following two-line orbital elements,

1 11511U 79078B   14258.45859447  .00000167  00000-0  65972-4 0  8824
2 11511 074.0398 003.5072 0014755 134.9508 294.6046 14.36448608834203
Epoch (UTC): 15 September 2014 11:00:22
Eccentricity: 0.0014755
inclination: 74.0398°
perigee height: 760 km
apogee height: 781 km
right ascension of ascending node: 3.5072°
argument of perigee: 134.9508°
revolutions per day: 14.36448608
mean anomaly at epoch: 294.6046°
orbit number at epoch: 83420

The dashed part of the orbit path shows where the satellite is in the earth's shadow,  

DLR